Location: Iesi
(43.5167°N, 13.2333°E)
Time: 02:14:17
(UTC+00:00)

Cosmos 1821 Rocket - Pass Details

Date: 08 August 2020
Orbit: 946 x 1004 km, 82.9° (Epoch: 25 September)

Event Time Altitude Azimuth Distance (km) Brightness Sun altitude
Rises 19:42:32 0° 186° (S) 3,607 6.7 -13.7°
Reaches altitude 10° 19:45:00 10° 187° (S) 2,670 6.0 -14.0°
Maximum altitude 19:51:07 89° 278° (W) 967 4.0 -14.9°
Drops below altitude 10° 19:57:22 10° 8° (N) 2,724 6.8 -15.8°
Sets 19:59:54 0° 8° (N) 3,684 7.5 -16.1°
